Location: Triton
(47.6048°N, 122.9899°W)
Time: 14:15:24
(UTC+00:00)

ARIANE 6 FM1 Upper Stage - Pass Details

Date: 19 February 2026
Orbit: 523 x 607 km, 62.0° (Epoch: 8 March)

Event Time Altitude Azimuth Distance (km) Brightness Sun altitude
Rises 03:14:48 0° 312° (NW) 2,659 6.9 -16.6°
Reaches altitude 10° 03:17:05 10° 304° (NW) 1,767 6.1 -16.9°
Maximum altitude 03:20:47 39° 235° (SW) 801 3.9 -17.6°
Drops below altitude 10° 03:24:29 10° 166° (SSE) 1,773 5.0 -18.2°
Enters shadow 03:24:50 - 165° (SSE) 1,908 5.2 -18.2°
